This demonstration page uses our WeatherBlox Daily Observations layout. Learn more.

Left ArrowRight Arrow

39.51506, -84.39828

Hourly Observations for July 31, 2015

Temp ( °F °C ) Dew Point ( °F °C ) Humidity (%) Winds ( mph kmh ) Pressure ( in mb ) Visibility ( mi km ) Precip ( " mm )
12:15 am 00:15 Clear 69 20.8 65 18.3 86 86 N N/A 30.03 1017 10 16 N/A
12:35 am 00:35 Clear 69 20.8 65 18.2 85 85 N N/A 30.06 1018 10 16 N/A
12:55 am 00:55 Clear 69 20.8 65 18.2 85 85 N N/A 30.06 1018 10 16 N/A
1:15 am 01:15 Clear 67 19.5 63 17.1 86 86 N N/A 30.06 1018 10 16 N/A
1:35 am 01:35 Clear 67 19.5 63 17.4 88 88 N N/A 30.03 1017 10 16 N/A
1:55 am 01:55 Clear 67 19.5 63 17.4 88 88 N N/A 30.03 1017 10 16 N/A
2:15 am 02:15 Clear 64 18 61 16 88 88 N N/A 30.03 1017 10 16 N/A
2:35 am 02:35 Clear 67 19.5 64 17.5 88 88 N N/A 30.03 1017 10 16 N/A
2:55 am 02:55 Clear 65 18.4 62 16.6 89 89 N N/A 30.03 1017 10 16 N/A
3:15 am 03:15 Clear 64 18 61 16.2 89 89 N N/A 30.03 1017 10 16 N/A
3:35 am 03:35 Clear 64 17.6 60 15.7 89 89 N N/A 30.03 1017 10 16 N/A
3:55 am 03:55 Clear 64 18 61 16.2 89 89 N N/A 30.03 1017 10 16 N/A
4:15 am 04:15 Clear 63 17.1 60 15.4 90 90 N N/A 30.03 1017 10 16 N/A
4:35 am 04:35 Clear 63 17.3 60 15.6 90 90 N N/A 30.03 1017 10 16 N/A
4:55 am 04:55 Clear 63 17 60 15.4 90 90 N N/A 30.03 1017 10 16 N/A
5:15 am 05:15 Clear 63 17 60 15.4 90 90 N N/A 30.03 1017 10 16 N/A
5:35 am 05:35 Clear 63 17.3 60 15.5 89 89 N N/A 30.03 1017 10 16 N/A
5:55 am 05:55 Clear 63 17.3 60 15.6 90 90 N N/A 30.03 1017 10 16 N/A
6:15 am 06:15 Clear 63 17 59 15.2 89 89 N N/A 30.03 1017 10 16 N/A
6:35 am 06:35 Clear 63 17 60 15.5 91 91 N N/A 30.03 1017 10 16 N/A
6:55 am 06:55 Sunny with Mist and Fog 63 17 60 15.4 90 90 WSW 3 6 30.03 1017 5 8 N/A
7:15 am 07:15 Sunny 64 18 62 16.5 91 91 WSW 3 6 30.03 1017 10 16 N/A
7:35 am 07:35 Sunny 66 18.9 63 17.3 90 90 WSW 3 6 30.03 1017 10 16 N/A
7:55 am 07:55 Sunny 69 20.7 66 18.7 88 88 WNW 3 6 30.03 1017 10 16 N/A
8:15 am 08:15 Sunny 69 20.8 65 18.1 85 85 W 5 7 30.03 1017 10 16 N/A
8:35 am 08:35 Sunny 69 20.8 64 17.8 83 83 SSW 5 7 30.03 1017 10 16 N/A
8:55 am 08:55 Sunny 73 23 67 19.2 79 79 SW 5 7 30.03 1017 10 16 N/A
9:15 am 09:15 Sunny 74 23.6 67 19.5 78 78 SSW 3 6 30.03 1017 10 16 N/A
9:35 am 09:35 Sunny 74 23.6 66 19 75 75 SW 3 6 30.03 1017 10 16 N/A
9:55 am 09:55 Sunny 77 25.1 68 19.8 73 73 N N/A 30.03 1017 10 16 N/A
10:15 am 10:15 Sunny 78 25.7 67 19.7 70 70 W 6 9 30.03 1017 10 16 N/A
10:35 am 10:35 Sunny 80 26.5 67 19.3 65 65 W 6 9 30.03 1017 10 16 N/A
10:55 am 10:55 Sunny 80 26.6 67 19.3 64 64 W 6 9 30.03 1017 10 16 N/A
11:15 am 11:15 Sunny 81 27.2 67 19.2 62 62 NW 5 7 30.03 1017 10 16 N/A
11:35 am 11:35 Sunny 82 28 65 18.4 56 56 W 8 13 30.03 1017 10 16 N/A
11:55 am 11:55 Sunny 83 28.3 63 17.3 51 51 W 8 13 30.03 1017 10 16 N/A
12:15 pm 12:15 Sunny 83 28.6 61 16 46 46 WNW 9 15 30.00 1016 10 16 N/A
12:35 pm 12:35 Sunny 83 28.6 60 15.5 45 45 W 7 11 30.00 1016 10 16 N/A
12:55 pm 12:55 Sunny 83 28.6 58 14.7 43 43 WNW 9 15 30.00 1016 10 16 N/A
1:15 pm 13:15 Sunny 84 29.1 59 14.9 42 42 W 5 7 29.97 1015 10 16 N/A
1:35 pm 13:35 Sunny 85 29.3 59 14.8 41 41 NW 12 19 29.97 1015 10 16 N/A
1:55 pm 13:55 Sunny 85 29.4 59 15.1 42 42 WNW 6 9 29.97 1015 10 16 N/A
2:15 pm 14:15 Partly Cloudy 87 30.3 61 16 42 42 WNW 8 13 29.97 1015 10 16 N/A
2:35 pm 14:35 Partly Cloudy 87 30.7 59 14.9 38 38 NW 6 9 29.97 1015 10 16 N/A
2:55 pm 14:55 Partly Cloudy 87 30.5 62 16.4 43 43 NW 6 9 29.97 1015 10 16 N/A
3:15 pm 15:15 Partly Cloudy 90 32.1 60 15.8 37 37 WNW 8 13 29.94 1014 10 16 N/A
3:35 pm 15:35 Partly Cloudy 89 31.9 60 15.4 37 37 W 10 17 29.94 1014 10 16 N/A
3:55 pm 15:55 Partly Cloudy 90 32.1 61 16.1 38 38 W 7 11 29.94 1014 10 16 N/A
4:15 pm 16:15 Partly Cloudy 90 32.1 60 15.7 37 37 W 9 15 29.94 1014 10 16 N/A
4:35 pm 16:35 Partly Cloudy 90 32.1 60 15.6 37 37 WNW 8 13 29.94 1014 10 16 N/A
4:55 pm 16:55 Sunny 90 32.1 59 14.9 35 35 W 10 17 29.91 1013 10 16 N/A
5:15 pm 17:15 Sunny 90 32 60 15.3 36 36 W 7 11 29.91 1013 10 16 N/A
5:35 pm 17:35 Sunny 90 32.1 60 15.3 36 36 W 10 17 29.91 1013 10 16 N/A
5:55 pm 17:55 Sunny 90 32.1 59 15 36 36 WSW 8 13 N/A 10 16 N/A
6:15 pm 18:15 Sunny 87 30.7 56 13.3 34 34 WSW 8 13 29.91 1013 10 16 N/A
6:35 pm 18:35 Sunny 87 30.7 58 14.2 37 37 W 9 15 29.91 1013 10 16 N/A
6:55 pm 18:55 Partly Cloudy 86 30 58 14.6 39 39 W 9 15 29.91 1013 N/A N/A
7:15 pm 19:15 Partly Cloudy 84 28.7 57 13.7 40 40 WSW 9 15 29.91 1013 N/A N/A
7:35 pm 19:35 Sunny 83 28.1 57 14.1 42 42 WSW 9 15 29.88 1012 N/A N/A
8:15 pm 20:15 Cloudy 81 27.2 59 15 47 47 SW 5 7 29.91 1013 10 16 N/A
8:35 pm 20:35 Partly Cloudy 80 26.5 61 15.9 52 52 SW 8 13 29.91 1013 10 16 N/A
8:55 pm 20:55 Partly Cloudy 80 26.5 62 16.5 54 54 WSW 6 9 29.91 1013 10 16 N/A
9:15 pm 21:15 Partly Cloudy 80 26.5 61 16 53 53 N N/A N/A 10 16 N/A
9:35 pm 21:35 Partly Cloudy 77 25.1 62 16.6 59 59 N N/A 29.91 1013 10 16 N/A
9:55 pm 21:55 Mostly Cloudy 74 23.6 65 18.5 73 73 W 3 6 29.91 1013 10 16 N/A
10:15 pm 22:15 Partly Cloudy 77 25.1 60 15.8 56 56 W 7 11 29.94 1014 10 16 N/A
10:35 pm 22:35 Clear 76 24.6 62 16.4 60 60 W 7 11 29.94 1014 10 16 N/A
10:55 pm 22:55 Clear 74 23.6 61 16.2 63 63 W 7 11 29.94 1014 10 16 N/A
11:15 pm 23:15 Clear 74 23.6 62 16.6 65 65 W 6 9 29.94 1014 10 16 N/A
11:35 pm 23:35 Clear 74 23.6 63 17.3 68 68 W 6 9 29.94 1014 10 16 N/A
11:55 pm 23:55 Clear 74 23.6 65 18.1 71 71 W 6 9 29.94 1014 10 16 N/A

Powered by AerisWeather